TimeCST,TemperatureF,Dew PointF,Humidity,Sea Level PressureIn,VisibilityMPH,Wind Direction,Wind SpeedMPH,Gust SpeedMPH,PrecipitationIn,Events,Conditions,WindDirDegrees,DateUTC
12:15 AM,17.6,12.2,79,30.29,10.0,North,18.4,29.9,N/A,Snow,Light Snow,350,2013-11-11 06:15:00
12:35 AM,17.6,12.2,79,30.30,10.0,NNW,18.4,23.0,N/A,Snow,Light Snow,340,2013-11-11 06:35:00
12:55 AM,15.8,12.2,86,30.31,10.0,North,13.8,23.0,N/A,Snow,Light Snow,350,2013-11-11 06:55:00
1:15 AM,15.8,10.4,79,30.31,10.0,North,15.0,24.2,N/A,Snow,Light Snow,350,2013-11-11 07:15:00
1:35 AM,15.8,12.2,86,30.32,10.0,North,13.8,21.9,N/A,Snow,Light Snow,360,2013-11-11 07:35:00
1:55 AM,15.8,10.4,79,30.33,10.0,North,9.2,25.3,N/A,Snow,Light Snow,10,2013-11-11 07:55:00
2:15 AM,14.0,8.6,79,30.34,10.0,North,15.0,25.3,N/A,Snow,Light Snow,360,2013-11-11 08:15:00
2:35 AM,14.0,8.6,79,30.35,10.0,North,9.2,26.5,N/A,,Scattered Clouds,360,2013-11-11 08:35:00
2:55 AM,14.0,6.8,73,30.36,-9999.0,North,11.5,31.1,N/A,,Scattered Clouds,10,2013-11-11 08:55:00
3:15 AM,12.2,8.6,85,30.36,-9999.0,North,19.6,28.8,N/A,,Clear,360,2013-11-11 09:15:00
3:35 AM,12.2,6.8,79,30.36,10.0,North,17.3,29.9,N/A,,Clear,350,2013-11-11 09:35:00
3:55 AM,12.2,6.8,79,30.37,10.0,North,13.8,26.5,N/A,,Clear,360,2013-11-11 09:55:00
4:15 AM,12.2,6.8,79,30.38,10.0,North,11.5,23.0,N/A,,Clear,360,2013-11-11 10:15:00
4:35 AM,12.2,6.8,79,30.39,10.0,North,13.8,23.0,N/A,,Clear,350,2013-11-11 10:35:00
4:55 AM,12.2,5.0,73,30.40,10.0,North,13.8,28.8,N/A,,Clear,360,2013-11-11 10:55:00
5:15 AM,10.4,5.0,79,30.41,10.0,North,11.5,27.6,N/A,,Clear,360,2013-11-11 11:15:00
5:35 AM,10.4,6.8,85,30.42,10.0,North,11.5,21.9,N/A,,Clear,360,2013-11-11 11:35:00
5:55 AM,10.4,5.0,79,30.43,10.0,North,12.7,25.3,N/A,,Scattered Clouds,360,2013-11-11 11:55:00
6:15 AM,10.4,5.0,79,30.44,10.0,North,10.4,25.3,N/A,,Scattered Clouds,360,2013-11-11 12:15:00
6:35 AM,10.4,5.0,79,30.44,10.0,North,11.5,21.9,N/A,,Scattered Clouds,360,2013-11-11 12:35:00
6:55 AM,10.4,5.0,79,30.46,10.0,North,10.4,18.4,N/A,,Mostly Cloudy,360,2013-11-11 12:55:00
7:15 AM,8.6,5.0,85,30.47,10.0,North,6.9,18.4,N/A,Snow,Light Snow,360,2013-11-11 13:15:00
7:35 AM,10.4,5.0,79,30.49,7.0,North,8.1,11.5,N/A,Snow,Light Snow,360,2013-11-11 13:35:00
7:55 AM,10.4,5.0,79,30.50,10.0,North,11.5,20.7,N/A,Snow,Light Snow,350,2013-11-11 13:55:00
8:15 AM,10.4,5.0,79,30.51,10.0,North,11.5,16.1,N/A,,Scattered Clouds,360,2013-11-11 14:15:00
8:35 AM,10.4,5.0,79,30.51,10.0,North,6.9,20.7,N/A,,Scattered Clouds,10,2013-11-11 14:35:00
8:55 AM,10.4,5.0,79,30.53,5.0,North,10.4,18.4,N/A,Snow,Light Snow,10,2013-11-11 14:55:00
9:15 AM,10.4,6.8,85,30.53,10.0,North,10.4,24.2,N/A,Snow,Light Snow,360,2013-11-11 15:15:00
9:35 AM,10.4,6.8,85,30.54,10.0,North,17.3,24.2,N/A,,Mostly Cloudy,360,2013-11-11 15:35:00
9:55 AM,10.4,6.8,85,30.55,4.0,North,9.2,24.2,N/A,Snow,Light Snow,360,2013-11-11 15:55:00
10:15 AM,12.2,8.6,85,30.55,5.0,North,13.8,23.0,N/A,Snow,Light Snow,350,2013-11-11 16:15:00
10:35 AM,12.2,6.8,79,30.56,7.0,NNW,16.1,21.9,N/A,Snow,Light Snow,340,2013-11-11 16:35:00
10:55 AM,12.2,6.8,79,30.57,7.0,North,9.2,20.7,N/A,Snow,Light Snow,360,2013-11-11 16:55:00
11:15 AM,12.2,8.6,85,30.58,5.0,North,13.8,19.6,N/A,Snow,Light Snow,360,2013-11-11 17:15:00
11:35 AM,14.0,8.6,79,30.58,5.0,NNW,16.1,21.9,N/A,Snow,Light Snow,340,2013-11-11 17:35:00
11:55 AM,14.0,8.6,79,30.58,7.0,NNW,16.1,20.7,N/A,Snow,Light Snow,340,2013-11-11 17:55:00
12:15 PM,14.0,8.6,79,30.58,10.0,North,15.0,21.9,N/A,Snow,Light Snow,350,2013-11-11 18:15:00
12:35 PM,15.8,8.6,73,30.58,10.0,North,11.5,20.7,N/A,,Mostly Cloudy,350,2013-11-11 18:35:00
12:55 PM,15.8,8.6,73,30.58,7.0,North,18.4,24.2,N/A,Snow,Light Snow,350,2013-11-11 18:55:00
1:15 PM,15.8,8.6,73,30.59,5.0,NNW,16.1,19.6,N/A,Snow,Light Snow,340,2013-11-11 19:15:00
1:35 PM,15.8,8.6,73,30.59,10.0,North,11.5,21.9,N/A,,Scattered Clouds,360,2013-11-11 19:35:00
1:55 PM,15.8,8.6,73,30.59,10.0,North,12.7,23.0,N/A,,Scattered Clouds,360,2013-11-11 19:55:00
2:15 PM,15.8,8.6,73,30.60,10.0,North,9.2,20.7,N/A,,Mostly Cloudy,360,2013-11-11 20:15:00
2:35 PM,17.6,8.6,68,30.60,10.0,NNW,15.0,20.7,N/A,,Mostly Cloudy,340,2013-11-11 20:35:00
2:55 PM,15.8,8.6,73,30.60,10.0,North,8.1,18.4,N/A,,Scattered Clouds,360,2013-11-11 20:55:00
3:15 PM,17.6,8.6,68,30.60,10.0,North,8.1,20.7,N/A,,Mostly Cloudy,10,2013-11-11 21:15:00
3:35 PM,17.6,8.6,68,30.61,10.0,NNW,13.8,19.6,N/A,,Mostly Cloudy,330,2013-11-11 21:35:00
3:55 PM,15.8,8.6,73,30.61,10.0,NNW,13.8,18.4,N/A,,Mostly Cloudy,330,2013-11-11 21:55:00
4:15 PM,15.8,8.6,73,30.62,10.0,North,12.7,20.7,N/A,,Mostly Cloudy,350,2013-11-11 22:15:00
4:35 PM,15.8,8.6,73,30.63,10.0,North,10.4,20.7,N/A,,Mostly Cloudy,360,2013-11-11 22:35:00
4:55 PM,15.8,8.6,73,30.63,10.0,North,15.0,19.6,N/A,,Mostly Cloudy,350,2013-11-11 22:55:00
5:15 PM,14.0,8.6,79,30.63,10.0,NNW,11.5,-,N/A,Snow,Light Snow,340,2013-11-11 23:15:00
5:35 PM,14.0,8.6,79,30.65,10.0,North,11.5,-,N/A,Snow,Light Snow,350,2013-11-11 23:35:00
5:55 PM,14.0,8.6,79,30.66,10.0,North,10.4,17.3,N/A,,Scattered Clouds,360,2013-11-11 23:55:00
6:15 PM,14.0,8.6,79,30.67,10.0,NNW,13.8,-,N/A,Snow,Light Snow,330,2013-11-12 00:15:00
6:35 PM,14.0,8.6,79,30.68,10.0,NNW,13.8,-,N/A,,Mostly Cloudy,340,2013-11-12 00:35:00
6:55 PM,14.0,8.6,79,30.68,10.0,NNW,16.1,19.6,N/A,,Mostly Cloudy,340,2013-11-12 00:55:00
7:15 PM,14.0,8.6,79,30.68,10.0,NNW,13.8,18.4,N/A,,Overcast,340,2013-11-12 01:15:00
7:35 PM,14.0,8.6,79,30.68,10.0,NNW,12.7,17.3,N/A,,Mostly Cloudy,330,2013-11-12 01:35:00
7:55 PM,14.0,8.6,79,30.68,10.0,NNW,9.2,-,N/A,Snow,Light Snow,330,2013-11-12 01:55:00
8:15 PM,12.2,6.8,79,30.69,10.0,NW,6.9,-,N/A,,Scattered Clouds,320,2013-11-12 02:15:00
8:35 PM,12.2,8.6,85,30.69,10.0,NNW,4.6,-,N/A,,Clear,340,2013-11-12 02:35:00
8:55 PM,12.2,8.6,85,30.69,10.0,North,6.9,-,N/A,,Clear,350,2013-11-12 02:55:00
9:15 PM,10.4,8.6,92,30.69,10.0,Calm,Calm,-,N/A,,Clear,0,2013-11-12 03:15:00
9:35 PM,10.4,6.8,85,30.71,10.0,NW,5.8,-,N/A,,Clear,320,2013-11-12 03:35:00
9:55 PM,10.4,6.8,85,30.72,10.0,NW,4.6,-,N/A,,Clear,320,2013-11-12 03:55:00
10:15 PM,10.4,6.8,85,30.71,10.0,Calm,Calm,-,N/A,,Clear,0,2013-11-12 04:15:00
10:35 PM,10.4,6.8,85,30.70,10.0,Calm,Calm,-,N/A,,Clear,0,2013-11-12 04:35:00
10:55 PM,10.4,6.8,85,30.71,10.0,WNW,4.6,-,N/A,,Clear,290,2013-11-12 04:55:00
11:15 PM,10.4,8.6,92,30.72,10.0,WNW,4.6,-,N/A,,Clear,290,2013-11-12 05:15:00
11:35 PM,10.4,8.6,92,30.72,10.0,WNW,3.5,-,N/A,,Clear,290,2013-11-12 05:35:00
11:55 PM,10.4,8.6,92,30.71,10.0,Calm,Calm,-,N/A,,Clear,0,2013-11-12 05:55:00